WetterOnline ( https://www.wetteronline.de )

Wetter aktuell Nagel

Aktuelles Wetter: Wunsiedel-Schönbrunn (622m)

6-stündlich | Neueste Meldungen
Ortszeit Temperatur Wetter
Fr, 02.12. 7:00 -1.4° C bedeckt
Fr, 02.12. 1:00 -0.5° C leichter Schneefall
Do, 01.12. 19:00 0.2° C leichter Schneefall
Do, 01.12. 13:00 1.9° C bedeckt
Do, 01.12. 7:00 -0.1° C bedeckt
Do, 01.12. 1:00 0.5° C bedeckt
Mi, 30.11. 19:00 -0.4° C bedeckt
Mi, 30.11. 13:00 0.6° C bedeckt
Ortszeit Temperatur Wetter
Fr, 02.12. 7:00 -1.4° C bedeckt
Fr, 02.12. 6:50 -1.4° C Dunst
Fr, 02.12. 6:40 -1.5° C Dunst
Fr, 02.12. 6:30 -1.5° C bedeckt
Fr, 02.12. 6:20 -1.5° C bedeckt
Fr, 02.12. 6:10 -1.6° C Dunst
Fr, 02.12. 6:00 -1.6° C leichter Schneefall
Fr, 02.12. 5:30 -1.5° C leichter Schneefall
Fr, 02.12. 5:00 -1.5° C bedeckt
Fr, 02.12. 4:30 -1.5° C leichter Schneefall
Fr, 02.12. 4:00 -1.4° C leichter Schneefall
Ortszeit Relative Feuchte Sichtweite
Fr, 02.12. 7:00 95% 6 km
Fr, 02.12. 1:00 96% 2.9 km
Do, 01.12. 19:00 96% 4.1 km
Do, 01.12. 13:00 91% 10 km
Do, 01.12. 7:00 94% 6 km
Do, 01.12. 1:00 94% 7 km
Mi, 30.11. 19:00 91% 9 km
Mi, 30.11. 13:00 87% 17 km
Ortszeit Relative Feuchte Sichtweite
Fr, 02.12. 7:00 95% 6 km
Fr, 02.12. 6:50 95% -
Fr, 02.12. 6:40 95% -
Fr, 02.12. 6:30 95% 8 km
Fr, 02.12. 6:20 95% -
Fr, 02.12. 6:10 95% -
Fr, 02.12. 6:00 94% 9 km
Fr, 02.12. 5:30 96% 7 km
Fr, 02.12. 5:00 96% 10 km
Fr, 02.12. 4:30 95% 10 km
Fr, 02.12. 4:00 96% 5.0 km
Ortszeit Niederschlagsmenge Niederschlagsart
Fr, 02.12. 7:00 0.8 l/m2 in 12 Std. Schnee
Fr, 02.12. 1:00 0.3 l/m2 in 6 Std. Schnee
Do, 01.12. 19:00 0.1 l/m2 in 12 Std. Schnee
Do, 01.12. 13:00 0.0 l/m2 in 6 Std. -
Do, 01.12. 7:00 0.0 l/m2 in 12 Std. -
Do, 01.12. 1:00 0.0 l/m2 in 6 Std. -
Mi, 30.11. 19:00 0.0 l/m2 in 12 Std. -
Mi, 30.11. 13:00 0.0 l/m2 in 6 Std. -
Ortszeit Niederschlagsmenge Niederschlagsart
Fr, 02.12. 7:00 <0.05 l/m2 in 1 Std. Schnee
Fr, 02.12. 6:50 keine Meldung -
Fr, 02.12. 6:40 keine Meldung -
Fr, 02.12. 6:30 <0.05 l/m2 in 1 Std. gefrierender Regen
Fr, 02.12. 6:20 keine Meldung -
Fr, 02.12. 6:10 keine Meldung -
Fr, 02.12. 6:00 <0.05 l/m2 in 1 Std. Schnee
Fr, 02.12. 5:30 <0.05 l/m2 in 1 Std. -
Fr, 02.12. 5:00 0.2 l/m2 in 1 Std. Schnee
Fr, 02.12. 4:30 0.2 l/m2 in 1 Std. -
Fr, 02.12. 4:00 0.1 l/m2 in 1 Std. Schnee
Ortszeit Stärke Spitze Richtung
km/h Bft. km/h Grad Sektor
Fr, 02.12. 7:00 15 3 24 30° NO
Fr, 02.12. 1:00 9 2 24 30° NO
Do, 01.12. 19:00 7 2 22 50° NO
Do, 01.12. 13:00 13 3 19 20° N
Do, 01.12. 7:00 7 2 19 30° NO
Do, 01.12. 1:00 11 2 25 70° O
Mi, 30.11. 19:00 11 2 25 100° O
Mi, 30.11. 13:00 15 3 24 110° O
Ortszeit Stärke Spitze Richtung
km/h Bft. km/h Grad Sektor
Fr, 02.12. 7:00 15 3 22 30° NO
Fr, 02.12. 6:50 15 3 - 30° NO
Fr, 02.12. 6:40 14 3 - 30° NO
Fr, 02.12. 6:30 14 3 22 20° N
Fr, 02.12. 6:20 14 3 - 20° N
Fr, 02.12. 6:10 13 3 - 30° NO
Fr, 02.12. 6:00 14 3 25 40° NO
Fr, 02.12. 5:30 15 3 24 360° N
Fr, 02.12. 5:00 13 3 20 20° N
Fr, 02.12. 4:30 11 2 22 20° N
Fr, 02.12. 4:00 14 3 18 10° N
Ortszeit Untergrenze Bedeckung Gattung
total tief tief mittel hoch
Fr, 02.12. 7:00 150 m 8/8 8/8 - - -
Fr, 02.12. 1:00 150 m 8/8 8/8 - - -
Do, 01.12. 19:00 120 m 7/8 7/8 - - -
Do, 01.12. 13:00 1440 m 8/8 8/8 - - -
Do, 01.12. 7:00 1260 m 8/8 8/8 - - -
Do, 01.12. 1:00 270 m 8/8 8/8 - - -
Mi, 30.11. 19:00 180 m 8/8 8/8 - - -
Mi, 30.11. 13:00 240 m 8/8 8/8 - - -
Ortszeit Bedeckungsgrad in Achtel und Wolkenuntergrenze
Fr, 02.12. 7:00 8(150m)
Fr, 02.12. 6:50 8(150m)
Fr, 02.12. 6:40 8
Fr, 02.12. 6:30 8(150m)
Fr, 02.12. 6:20 8(150m)
Fr, 02.12. 6:10 8
Fr, 02.12. 6:00 7(120m)
Fr, 02.12. 5:30 8(120m)
Fr, 02.12. 5:00 8(180m)
Fr, 02.12. 4:30 5(150m) 7(810m) 7(1230m)
Fr, 02.12. 4:00 2(90m) 5(210m) 7(1230m)
Ortszeit Luftdruck NN (hPa) Tendenz (hPa in 3 Std.)
Fr, 02.12. 7:00 1023 - 0,8
Fr, 02.12. 1:00 1024 - 0,8
Do, 01.12. 19:00 1025 + 0,3
Do, 01.12. 13:00 1025 - 0,6
Do, 01.12. 7:00 1026 + 0,1
Do, 01.12. 1:00 1025 - 0,2
Mi, 30.11. 19:00 1025 + 0,6
Mi, 30.11. 13:00 1024 0,0
Ortszeit Luftdruck NN (hPa) Tendenz (hPa in 3 Std.)
Fr, 02.12. 7:00 1023 - 0,8
Fr, 02.12. 6:50 1023 keine Meldung
Fr, 02.12. 6:40 1023 keine Meldung
Fr, 02.12. 6:30 1023 - 0,9
Fr, 02.12. 6:20 1023 keine Meldung
Fr, 02.12. 6:10 1023 keine Meldung
Fr, 02.12. 6:00 1023 - 1,0
Fr, 02.12. 5:30 1023 - 1,0
Fr, 02.12. 5:00 1023 - 1,0
Fr, 02.12. 4:30 1023 - 0,8
Fr, 02.12. 4:00 1024 - 1,0
Ortszeit Schneehöhe (cm)
Fr, 02.12. 7:00 2
Fr, 02.12. 1:00 1
Do, 01.12. 19:00 0
Do, 01.12. 13:00 0
Do, 01.12. 7:00 0
Do, 01.12. 1:00 0
Mi, 30.11. 19:00 0
Mi, 30.11. 13:00 0
Ortszeit Schneehöhe (cm)
Fr, 02.12. 7:00 2
Fr, 02.12. 6:50 2
Fr, 02.12. 6:40 2
Fr, 02.12. 6:30 2
Fr, 02.12. 6:20 2
Fr, 02.12. 6:10 2
Fr, 02.12. 6:00 2
Fr, 02.12. 5:30 2
Fr, 02.12. 5:00 2
Fr, 02.12. 4:30 2
Fr, 02.12. 4:00 2
Link zu dieser Seite / Seite empfehlen

Das Wetter in ...